Location: Ambatomahamanina
(18.7804°S, 47.6316°E)
Time: 17:23:31
(UTC+00:00)

Daily predictions for brighter satellites

Satellite Brightness Start Highest point End
(mag) Time Altitude Azimuth Time Altitude Azimuth Time Altitude Azimuth
FALCON 9 R/B 4.1 13:15:32 10° W 13:21:54 69° S 14:10:00 10° ESE
CENTAUR R/B 4.0 14:35:50 10° NW 14:44:10 52° WSW 14:51:42 10° SSE
Cosmos 1766 3.2 14:42:15 10° N 14:46:05 67° E 14:49:57 10° S
H-2A R/B 3.5 14:43:04 10° S 14:46:50 56° WSW 14:50:30 10° NNW
Cosmos 968 Rocket 4.1 14:42:35 10° NNW 14:47:40 61° WSW 14:52:51 10° S
Cosmos 841 Rocket 3.5 14:42:57 10° SSW 14:48:14 86° ESE 14:53:26 10° NNE
Cosmos 2208 Rocket 4.0 14:44:17 10° S 14:49:35 78° ESE 14:54:54 10° NNE
ASTEX 1 4.2 14:47:42 10° SSE 14:52:09 32° E 14:56:35 10° NNE
ASTRO E2 4.2 14:55:31 10° SW 14:58:37 21° SSE 15:01:25 11° ESE
BREEZE M DEB (TANK) 3.4 14:51:56 10° WNW 14:58:58 41° SW 15:01:10 10° SSE
CZ-4 R/B 3.4 14:58:17 10° ESE 14:59:49 12° E 15:01:19 10° ENE
NOAA 12 4.1 14:55:31 10° SSE 15:00:46 66° ENE 15:06:01 10° N
Sakura Rocket 4.4 15:00:51 10° WSW 15:03:51 21° S 15:06:35 11° SE
H-2A R/B 4.4 15:04:46 10° NE 15:06:44 11° ENE 15:09:29 10° E
Meteor 1-24 Rocket 4.5 15:03:34 10° SSE 15:08:15 28° E 15:13:02 10° NE
ERBS 4.4 15:07:00 10° WNW 15:09:47 23° SW 15:12:36 10° S
Cosmos 1354 Rocket 4.5 15:04:33 10° NNW 15:09:48 66° WSW 15:15:04 10° S
Cosmos 1437 2.9 15:08:27 10° S 15:11:21 42° E 15:14:14 10° NNE
Cosmos 2360 Rocket 3.0 15:08:17 10° SSE 15:12:58 27° ESE 15:17:38 10° NE
Helios 1A Rocket 3.0 15:09:27 10° SSE 15:13:34 61° E 15:17:39 10° N
BREEZE-M (TANK) 3.1 15:04:17 10° SW 15:13:51 89° SE 15:16:52 10° NE
Cosmos 1470 3.4 15:10:31 10° NNE 15:14:10 36° E 15:17:52 10° SSE
Cosmos 1939 Rocket 4.1 15:13:48 15° SE 15:16:15 25° E 15:19:38 10° NNE
Envisat 3.9 15:14:42 10° S 15:19:40 51° WSW 15:24:34 10° NNW
ATLAS 3B R/B 3.3 15:13:58 10° NW 15:21:11 65° WSW 15:28:34 10° SSE
SMAP 4.1 15:16:41 10° S 15:21:11 47° WSW 15:25:38 10° NNW
Centaur AC-42 4.4 15:16:46 10° NNW 15:22:24 41° NE 15:39:20 17° E
Centaur AC-42 4.4 15:16:45 10° NNW 15:22:24 41° NE 15:39:20 17° E
Centaur AC-42 4.4 15:16:46 10° NNW 15:22:24 41° NE 15:39:19 17° E
Centaur AC-42 4.4 15:16:46 10° NNW 15:22:24 41° NE 15:39:21 17° E
Fermi 3.7 15:18:42 10° WNW 15:22:46 86° SSW 15:25:10 24° ESE
MOS 1 Rocket 4.2 15:18:46 10° NE 15:23:29 33° ESE 15:28:19 10° SSE
CZ-2D R/B 4.4 15:24:49 23° ESE 15:25:38 25° E 15:28:49 10° NNE
SL-24 R/B 3.9 15:22:32 10° NNE 15:26:56 62° ESE 15:30:52 10° S
GPS 2-14 Rocket1 2.5 15:27:45 10° W 15:31:32 67° S 15:33:06 32° ESE
SL-16 R/B 2.6 15:25:53 10° SSW 15:31:32 67° WNW 15:37:07 10° N
ARGOS Delta rocket 3.9 15:27:12 10° S 15:31:36 70° W 15:35:59 10° NNW
Cosmos 1818 3.6 15:26:18 10° SSW 15:31:43 81° WNW 15:37:05 10° NNE
Ariane H10 4.4 15:30:16 10° N 15:32:41 15° NNE 15:36:49 10° ENE
Cosmos 2227 Rocket 3.5 15:29:23 10° NE 15:33:11 19° ENE 15:33:11 19° ENE
Cosmos 1674 3.6 15:30:31 10° SSW 15:34:15 50° W 15:37:57 10° N
Cosmos 1340 Rocket 3.4 15:32:37 10° NNE 15:36:10 33° E 15:36:24 32° E
Timation 2 Rocket 3.9 15:30:23 10° N 15:36:22 68° ENE 15:41:38 15° SSE
Cosmos 1626 2.4 15:34:45 19° SSE 15:37:09 44° E 15:40:41 10° NNE
Cosmos 1553 Rocket 4.4 15:34:10 10° NNE 15:39:50 40° E 15:43:39 20° SSE
Cosmos 1758 3.2 15:36:50 10° N 15:40:49 76° E 15:43:39 19° S
Cosmos 2219 3.8 15:35:50 10° NNE 15:40:55 36° ENE 15:42:33 30° ESE
Okean O Rocket 4.5 15:42:08 10° SW 15:44:37 15° WSW 15:47:04 10° WNW
Cosmos 2098 Rocket 4.3 15:38:19 10° S 15:45:53 84° E 15:52:44 10° N
ATLAS 5 CENTAUR R/B 2.9 15:42:41 10° SW 15:46:55 39° WNW 15:50:44 10° N
Cosmos 1892 Rocket 3.4 15:42:44 10° S 15:47:08 75° E 15:51:26 10° N
Cosmos 1455 Rocket 4.3 15:44:53 10° NNW 15:49:06 42° W 15:53:23 10° SSW
CZ-3C R/B 4.2 15:45:26 10° WNW 15:50:20 34° N 16:16:29 10° ENE
CZ-3C R/B 4.2 15:45:26 10° WNW 15:50:21 34° N 16:16:29 10° ENE
SL-4 R/B 3.0 15:45:54 10° NNW 15:50:21 37° NE 15:50:53 36° ENE
CREW DRAGON DEMO-1 DEB 4.1 15:48:18 10° SW 15:51:16 41° NW 15:53:21 16° NNE
Meteor 2-10 4.2 15:47:23 10° N 15:52:58 59° E 15:56:03 27° SSE
CZ-4 R/B 4.4 15:51:34 25° S 15:53:59 84° W 15:58:07 10° NNW
ATLAS 2AS CENTAUR RB 2.8 15:49:23 10° WNW 15:56:29 28° N 15:57:44 23° NNE
YAOGAN 1 2.5 15:57:21 56° E 15:57:34 57° E 16:01:48 10° N
Exosat Rocket 4.0 15:54:00 10° N 15:59:02 48° E 16:00:19 42° ESE
CSL-04 Rocket 4.1 15:59:35 41° E 15:59:38 41° E 16:04:49 10° N
Okean-O 2.9 15:58:07 21° S 16:01:05 68° WSW 16:05:28 10° NNW
SWIFT 2.9 15:57:15 10° W 16:01:19 50° NNW 16:02:13 42° NNE
Okean 1-7 Rocket 3.5 15:57:02 10° S 16:01:37 87° E 16:06:11 10° N
CZ-2C R/B 2.4 16:03:57 10° NNE 16:09:07 70° ESE 16:14:18 10° S
NOAA 15 4.5 16:08:57 47° SSE 16:10:33 80° ENE 16:15:52 10° N
Lacrosse 4 Rocket 1.5 16:08:52 10° NNW 16:12:36 69° WNW 16:12:36 69° WNW
H-2A R/B 4.0 16:20:12 17° NNE 16:20:12 17° NNE 16:21:36 10° NNE
Cosmos 2322 Rocket 4.3 16:14:07 10° SW 16:18:46 27° WNW 16:23:23 10° NNW
Meteor 2-21 Rocket 4.3 16:25:24 68° SSE 16:26:08 77° E 16:32:20 10° N
Meteor 1-16 Rocket 4.1 16:22:07 10° N 16:27:38 84° NE 16:27:38 84° NE
DMSP B5D2-2 4.3 16:24:43 10° N 16:29:52 67° WNW 16:35:06 10° SSW
Cosmos 1953 3.8 16:28:43 10° NNW 16:31:41 37° WNW 16:31:41 37° WNW
Skynet4D Del rocket 4.4 16:26:26 10° NW 16:33:19 57° NNE 16:33:53 56° NE
Cosmos 2297 Rocket 2.2 16:28:07 10° NNW 16:33:35 78° W 16:33:35 78° W
CZ-4 R/B 3.1 16:34:13 28° WSW 16:34:44 29° WSW 16:38:19 10° NW
Delta 202 4.2 16:28:57 10° W 16:35:15 88° N 16:36:11 72° E
NOSS 3-3 (A) 4.4 16:34:27 10° SW 16:40:06 52° WNW 16:45:27 10° N
NOSS 3-3 (C) 4.3 16:34:32 10° SW 16:40:12 53° WNW 16:45:34 10° N
SJ 16-02 4.0 16:41:22 10° N 16:41:45 12° N 16:41:45 12° N
USA 234 3.4 16:48:30 65° N 16:48:30 65° N 16:54:08 10° NNW
Cosmos 2360 Rocket 4.3 16:52:16 10° SW 16:56:42 24° WNW 17:01:08 10° NNW
Cosmos 2227 Rocket 4.0 17:11:49 10° NW 17:15:04 28° WNW 17:15:04 28° WNW
